CW2969 Weather Reports


time (UTC)temp
C
wind
direction
speed
KPH
gust
KPH
rain 1hr
cm
rain 24hr
cm
rain mn
cm
humidity
%
barometer
mb
20260503204525 26 134 12.9 12.9 0.00 0.00 0.00 37 1018.2
20260503204025 26 158 3.2 14.5 0.00 0.00 0.00 38 1018.4
20260503203525 26 207 3.2 14.5 0.00 0.00 0.00 38 1018.5
20260503203025 26 331 3.2 17.7 0.00 0.00 0.00 38 1018.7
20260503202525 26 140 4.8 17.7 0.00 0.00 0.00 39 1018.7
20260503202025 27 165 8.0 9.7 0.00 0.00 0.00 39 1018.7
20260503201025 26 248 6.4 12.9 0.00 0.00 0.00 39 1018.7
20260503200525 26 295 3.2 17.7 0.00 0.00 0.00 39 1018.9
20260503200025 26 188 4.8 17.7 0.00 0.00 0.00 39 1019.1
20260503194525 26 207 3.2 14.5 0.00 0.00 0.00 39 1019.2
20260503194024 26 202 1.6 17.7 0.00 0.00 0.00 41 1019.3
20260503193024 26 136 6.4 11.3 0.00 0.00 0.00 41 1019.4
20260503192524 26 115 3.2 9.7 0.00 0.00 0.00 40 1019.4
20260503192025 26 117 3.2 9.7 0.00 0.00 0.00 41 1019.5
20260503191524 26 290 0.0 20.9 0.00 0.00 0.00 42 1019.5
20260503191024 26 165 16.1 20.9 0.00 0.00 0.00 41 1019.6
20260503190524 26 143 1.6 27.4 0.00 0.00 0.00 42 1019.7
20260503185525 26 87 3.2 8.0 0.00 0.00 0.00 42 1019.9
20260503185024 26 254 1.6 11.3 0.00 0.00 0.00 42 1020.0
20260503184024 25 159 3.2 12.9 0.00 0.00 0.00 43 1020.1
20260503183524 26 200 9.7 12.9 0.00 0.00 0.00 44 1020.2
20260503183024 26 196 4.8 12.9 0.00 0.00 0.00 44 1020.3
20260503182524 26 153 6.4 12.9 0.00 0.00 0.00 45 1020.5
20260503181024 25 103 9.7 12.9 0.00 0.00 0.00 45 1020.7
20260503180524 25 319 4.8 17.7 0.00 0.00 0.00 45 1020.8
20260503180024 25 130 6.4 17.7 0.00 0.00 0.00 45 1020.9
20260503175524 25 195 4.8 16.1 0.00 0.00 0.00 46 1021.0
20260503174523 25 327 6.4 9.7 0.00 0.00 0.00 47 1021.0
20260503174023 25 152 6.4 12.9 0.00 0.00 0.00 46 1021.2
20260503173523 25 149 6.4 12.9 0.00 0.00 0.00 47 1021.3
20260503173023 25 98 3.2 14.5 0.00 0.00 0.00 49 1021.3
20260503172523 25 186 4.8 14.5 0.00 0.00 0.00 49 1021.4
20260503172023 25 118 6.4 12.9 0.00 0.00 0.00 50 1021.4
20260503171523 25 217 3.2 14.5 0.00 0.00 0.00 50 1021.5
20260503171023 24 230 3.2 14.5 0.00 0.00 0.00 51 1021.6
20260503170523 24 128 11.3 14.5 0.00 0.00 0.00 50 1021.6
20260503131020 13 101 0.0 0.0 0.00 0.00 0.00 83 1021.4
20260503130520 13 101 0.0 0.0 0.00 0.00 0.00 83 1021.4
20260503110519 10 101 0.0 0.0 0.00 0.00 0.00 83 1020.7
20260503081518 11 101 0.0 0.0 0.00 0.00 0.00 82 1020.3
20260503081017 11 101 0.0 0.0 0.00 0.00 0.00 82 1020.3
20260503080518 11 101 0.0 0.0 0.00 0.00 0.00 82 1020.3
20260503072517 11 101 0.0 0.0 0.00 0.00 0.00 82 1020.6
20260503072018 11 101 0.0 0.0 0.00 0.00 0.00 81 1020.6
20260503071517 11 101 0.0 0.0 0.00 0.00 0.00 81 1020.6
20260503071017 11 101 0.0 0.0 0.00 0.00 0.00 81 1020.6
20260503070517 11 101 0.0 0.0 0.00 0.00 0.00 81 1020.6
20260503055016 12 101 0.0 0.0 0.00 0.00 0.00 79 1020.7
20260503054516 12 101 0.0 0.0 0.00 0.00 0.00 79 1020.8
20260503054017 12 101 0.0 0.0 0.00 0.00 0.00 79 1020.7
20260503053517 12 101 0.0 0.0 0.00 0.00 0.00 79 1020.7
20260503053016 12 101 0.0 0.0 0.00 0.00 0.00 79 1020.7
20260503052516 12 101 0.0 0.0 0.00 0.00 0.00 78 1020.7
20260503052016 12 101 0.0 0.0 0.00 0.00 0.00 78 1020.7
20260503051016 12 101 0.0 0.0 0.00 0.00 0.00 78 1020.7
20260503050516 12 101 0.0 0.0 0.00 0.00 0.00 78 1020.8
20260503050015 12 101 0.0 0.0 0.00 0.00 0.00 78 1020.8
20260503045515 12 101 0.0 0.0 0.00 0.00 0.00 77 1020.7
20260503044515 13 101 0.0 0.0 0.00 0.00 0.00 77 1020.7
20260503044015 13 101 0.0 0.0 0.00 0.00 0.00 77 1020.9
20260503043515 13 101 0.0 0.0 0.00 0.00 0.00 76 1020.7
20260503043016 13 101 0.0 0.0 0.00 0.00 0.00 76 1020.8
20260503042515 13 101 0.0 0.0 0.00 0.00 0.00 75 1020.7
20260503041515 13 101 0.0 0.0 0.00 0.00 0.00 75 1020.5
20260503041016 13 101 0.0 0.0 0.00 0.00 0.00 74 1020.4
20260503040516 13 101 0.0 0.0 0.00 0.00 0.00 74 1020.5
20260503040015 13 101 0.0 0.0 0.00 0.00 0.00 74 1020.5
20260503035515 13 101 0.0 0.0 0.00 0.00 0.00 73 1020.4
20260503034515 13 101 0.0 0.0 0.00 0.00 0.00 72 1020.3
20260503034015 14 101 0.0 0.0 0.00 0.00 0.00 72 1020.4
20260503033515 14 101 0.0 0.0 0.00 0.00 0.00 72 1020.3
20260503032515 14 101 0.0 0.0 0.00 0.00 0.00 71 1020.2
20260503032015 15 101 0.0 0.0 0.00 0.00 0.00 71 1020.2
20260503031515 15 101 0.0 0.0 0.00 0.00 0.00 70 1020.1
20260503031015 15 101 0.0 0.0 0.00 0.00 0.00 69 1020.0
20260503030514 15 101 0.0 0.0 0.00 0.00 0.00 69 1020.0
20260503030015 15 101 0.0 0.0 0.00 0.00 0.00 69 1020.0
20260503025515 15 101 0.0 0.0 0.00 0.00 0.00 68 1019.8
20260503025014 15 101 0.0 0.0 0.00 0.00 0.00 68 1019.8
20260503024514 15 101 0.0 0.0 0.00 0.00 0.00 67 1019.8
20260503024014 16 101 0.0 0.0 0.00 0.00 0.00 67 1019.7
20260503023514 16 101 0.0 0.0 0.00 0.00 0.00 66 1019.5
20260503023014 16 101 0.0 0.0 0.00 0.00 0.00 66 1019.4
20260503022514 16 101 0.0 0.0 0.00 0.00 0.00 66 1019.3
20260503022014 16 101 0.0 0.0 0.00 0.00 0.00 65 1019.2
20260503021514 16 101 0.0 0.0 0.00 0.00 0.00 64 1019.3
20260503021014 17 101 0.0 0.0 0.00 0.00 0.00 64 1019.2
20260503020514 17 101 0.0 0.0 0.00 0.00 0.00 63 1019.2
20260503020014 17 101 0.0 0.0 0.00 0.00 0.00 62 1019.3
20260503015514 17 101 0.0 0.0 0.00 0.00 0.00 61 1019.1
20260503015014 18 101 0.0 0.0 0.00 0.00 0.00 60 1019.1
20260503014514 18 101 0.0 0.0 0.00 0.00 0.00 59 1019.2
20260503014014 18 101 0.0 0.0 0.00 0.00 0.00 58 1019.1
20260503013514 19 101 0.0 0.0 0.00 0.00 0.00 57 1019.3
20260503013014 19 101 0.0 0.0 0.00 0.00 0.00 56 1019.3
20260503012514 20 101 0.0 0.0 0.00 0.00 0.00 55 1019.2
20260503011514 20 101 0.0 0.0 0.00 0.00 0.00 54 1019.0
20260503011014 21 101 0.0 0.0 0.00 0.00 0.00 53 1019.0
20260503010514 21 101 0.0 0.0 0.00 0.00 0.00 51 1019.0
20260503010014 22 101 0.0 0.0 0.00 0.00 0.00 50 1019.1
20260503005513 22 101 0.0 1.6 0.00 0.00 0.00 48 1019.0
20260503005013 22 101 0.0 1.6 0.00 0.00 0.00 47 1018.9
20260503004513 23 101 0.0 1.6 0.00 0.00 0.00 46 1018.9
20260503004014 23 103 0.0 1.6 0.00 0.00 0.00 45 1018.9
20260503003513 23 74 0.0 3.2 0.00 0.00 0.00 45 1018.8
20260503003013 23 98 1.6 3.2 0.00 0.00 0.00 44 1018.9
20260503002513 23 39 1.6 1.6 0.00 0.00 0.00 45 1018.9
20260503002013 23 107 0.0 1.6 0.00 0.00 0.00 44 1018.9
20260503000513 23 205 3.2 4.8 0.00 0.03 0.00 43 1018.7
20260502235513 24 88 0.0 3.2 0.00 0.03 0.00 43 1018.7
20260502234013 24 336 0.0 4.8 0.00 0.03 0.00 43 1018.6
20260502233513 24 100 1.6 6.4 0.00 0.03 0.00 43 1018.6
20260502233013 24 78 0.0 6.4 0.00 0.03 0.00 43 1018.6
20260502232513 24 37 1.6 3.2 0.00 0.03 0.00 44 1018.5
20260502232013 24 82 0.0 3.2 0.00 0.03 0.00 43 1018.5
20260502231513 24 66 0.0 11.3 0.00 0.03 0.00 44 1018.6
20260502231013 24 355 6.4 11.3 0.00 0.03 0.00 44 1018.6
20260502230012 25 134 0.0 6.4 0.00 0.03 0.00 45 1018.5
20260502225512 24 336 3.2 6.4 0.00 0.03 0.00 45 1018.6
20260502225012 24 360 3.2 4.8 0.00 0.03 0.00 45 1018.6
20260502224512 24 67 1.6 6.4 0.00 0.03 0.00 44 1018.7
20260502223512 24 119 0.0 3.2 0.00 0.03 0.00 45 1018.7
20260502223013 24 126 3.2 11.3 0.00 0.03 0.00 45 1018.7
20260502222512 24 348 3.2 11.3 0.00 0.05 0.00 46 1018.7
20260502222012 25 93 3.2 6.4 0.00 0.05 0.00 45 1018.8
20260502221512 25 153 1.6 6.4 0.00 0.08 0.00 45 1018.9
20260502220512 25 43 1.6 9.7 0.00 0.15 0.00 45 1018.9
20260502213012 25 70 3.2 9.7 0.00 0.28 0.00 46 1019.2
20260502212512 24 107 3.2 11.3 0.00 0.33 0.00 47 1019.3
20260502212012 24 138 1.6 11.3 0.00 0.36 0.00 46 1019.3
20260502211511 25 91 4.8 6.4 0.00 0.36 0.00 47 1019.4
20260502211012 24 30 3.2 6.4 0.00 0.38 0.00 46 1019.4
20260502210512 24 311 0.0 1.6 0.00 0.38 0.00 46 1019.5
20260502210011 24 298 1.6 1.6 0.00 0.41 0.00 46 1019.6
20260502205511 24 119 0.0 0.0 0.00 0.43 0.00 47 1019.6